Regional Weather Roundup
Issued by NWS

Home | Current Version | Previous Version | Text Only | Print | Product List | Glossary Off
Versions: 1 2 3 4 5 6 7 8 9 10 11 12 13 14 15 16 17 18 19 20 21 22 23 24 25 26 27 28 29 30 31 32 33 34 35 36 37 38 39 40 41 42 43 44 45 46 47 48 49 50

786
ASUS43 KIND 052309
RWRIN

WEATHER ROUNDUP FOR INDIANA
NATIONAL WEATHER SERVICE INDIANAPOLIS IN
600 PM EST MON DEC 05 2016

NOTE: "FAIR" INDICATES FEW OR NO CLOUDS BELOW 12,000 FEET WITH NO
SIGNIFICANT WEATHER AND/OR OBSTRUCTIONS TO VISIBILITY.

* - STATION DOES NOT REPORT WEATHER SUCH AS PRECIPITATION OR FOG.

+ - STATION NOT QUALITY CONTROLLED BY THE NATIONAL WEATHER SERVICE.
    USE DATA WITH CAUTION...ESPECIALLY DEWPOINT AND RELATIVE
    HUMIDITY OBSERVATIONS.

INZ001>003-010>013-019-020-060000-
NORTHWEST INDIANA

CITY           SKY/WX    TMP DP  RH WIND       PRES   REMARKS
GARY /AIRPORT/ CLOUDY    34  32  93 SE5       30.01F WCI  30
KNOX *+        CLOUDY    32  21  64 SE8       30.01F WCI  25
LA PORTE +     CLOUDY   N/A N/A N/A SE5       30.01S
MICHIGAN CITY+ CLOUDY    32  32 100 E6        30.02F WCI  26
MONTICELLO +   CLOUDY    35  31  84 E6        29.99F WCI  30
RENSSELAER +   PTCLDY    34  32  93 NE7       29.99F WCI  28
VALPARAISO     CLOUDY    33  30  88 SE8       30.00F WCI  26

$$

LMZ046-743>745-060000-
SOUTHERN LAKE MICHIGAN

STATION/POSITION TIME  TEMP    WIND        PRES    WAVE
                       AIR SEA DIR/SP/G            HT
                 (UTC) (F)     (DEG/KT/KT) (MB)    (FT)
BURNS HARBOR     2240   33     160/  6/ 10 1016.9S

$$

INZ004-005-014>016-021>024-060000-
NORTH CENTRAL INDIANA

CITY           SKY/WX    TMP DP  RH WIND       PRES   REMARKS
ELKHART        CLOUDY    32  30  93 SE5       30.03F WCI  27
GOSHEN         CLOUDY    33  28  81 SE9       30.03S WCI  25
LOGANSPORT +   CLOUDY    34  32  93 E6        30.01F WCI  29
PERU/GRISSOM   PTCLDY    34  33  97 E6        29.99F WCI  28
ROCHESTER +    PTCLDY    34  34 100 E6        30.02F WCI  29
SOUTH BEND     CLOUDY    31  29  92 SE9       30.03F WCI  23
WARSAW +       CLOUDY    32  30  93 SE9       30.03F WCI  24

$$

INZ006>009-017-018-025>027-060000-
NORTHEAST INDIANA

CITY           SKY/WX    TMP DP  RH WIND       PRES   REMARKS
ANGOLA *+      CLOUDY    30  28  93 SE3       30.03S
AUBURN +       MOCLDY    32  30  93 CALM      30.05S
FORT WAYNE     MOCLDY    32  29  88 E5        30.04F WCI  27
HUNTINGTON +   CLOUDY    32  32  98 E5        30.02S WCI  28
KENDALLVILLE + CLOUDY    32  30  92 SE7       30.03F WCI  25

$$

INZ028-029-035-036-043>045-051>053-060000-
WEST CENTRAL INDIANA

CITY           SKY/WX    TMP DP  RH WIND       PRES   REMARKS
CRAWFORDSVL +  CLEAR     34  32  93 SE6       29.98S WCI  29
GREENCASTLE +  PTCLDY    36  34  93 SE7       29.99F
LAFAYETTE      CLOUDY    34  31  88 E8        29.99S WCI  27
TERRE HAUTE    CLEAR     39  32  76 SE7       29.98F

$$

INZ030>032-037>040-046>048-054>057-064-065-060000-
CENTRAL INDIANA

CITY           SKY/WX    TMP DP  RH WIND       PRES   REMARKS
CP ATTERBURY + CLOUDY    36  32  87 E5        30.01F
COLUMBUS       PTCLDY    36  36 100 E6        30.02S
FISHERS *+     CLOUDY    36  34  93 SE5       30.01
FRANKFORT +    MOCLDY    38  36  89 E7        30.01R
GREENWOOD *+   CLOUDY    39  34  84 CALM      30.02R
INDIANAPOLIS   CLOUDY    37  32  82 SE8       30.01R
-EAGLE CREEK   PTCLDY    40  32  73 SE8       30.00S
KOKOMO +       PTCLDY    35  33  92 E7        30.01F WCI  29
MARION +       PTCLDY    35  32  88 E5        30.02R WCI  31
MT COMFORT *+  PTCLDY    36  32  87 SE7       30.01S
SHELBYVILLE    CLOUDY    38  33  82 E5        30.01S
ZIONSVILLE +   CLOUDY    35  32  87 SE5       30.00S WCI  31

$$

INZ033-034-041-042-049-050-058-059-060000-
EAST CENTRAL INDIANA

CITY           SKY/WX    TMP DP  RH WIND       PRES   REMARKS
MUNCIE         PTCLDY    36  32  85 E7        30.02R

$$

INZ060-061-067>069-081>083-085>088-060000-
SOUTHWEST INDIANA

CITY           SKY/WX    TMP DP  RH WIND       PRES   REMARKS
EVANSVILLE     PTCLDY    42  34  73 E5        29.95F
HUNTINGBURG *+ CLOUDY    41  34  75 E8        29.95F
WASHINGTON +   PTCLDY    38  37  92 E6        29.96F

$$

INZ062-063-066-070>080-084-089>092-060000-
SOUTH CENTRAL AND SOUTHEAST INDIANA

CITY           SKY/WX    TMP DP  RH WIND       PRES   REMARKS
BLOOMINGTON    PTCLDY    38  31  76 E5        29.98F
MADISON *+     MOCLDY    41  32  70 E3        30.02F
NORTH VERNON + PTCLDY    41  37  87 CALM      30.02S
SEYMOUR +      PTCLDY    39  32  75 E5        30.00F

$$





USA.gov is the U.S. government's official web portal to all federal, state and local government web resources and services.